Weather Roundup
Issued by NWS

Home | Current Version | Previous Version | Graphics & Text | Print | Product List | Glossary Off
Versions: 1 2 3 4 5 6 7 8 9 10 11 12 13 14 15 16 17 18 19 20 21 22 23 24 25 26 27 28 29 30 31 32 33 34 35 36 37 38 39 40 41 42 43 44 45 46 47 48 49 50

842
NZUS93 KARX 251510
HRRWXR

CURRENT HOURLY OBSERVATIONS ACROSS
MUCH OF THE UPPER MISSISSIPPI VALLEY
NATIONAL WEATHER SERVICE LA CROSSE WI
1000 AM CDT THU MAY 25 2017


...SOUTHEAST MINNESOTA...


CITY           SKY/WX    TMP DP  RH WIND       PRES   REMARKS
ROCHESTER      MOSUNNY   60  52  74 SE6       29.73F
ROCHESTER/MAYO FAIR      58  49  73 E7        29.72
WINONA         CLOUDY    55  52  88 CALM      29.72F
AUSTIN         SUNNY     57  48  72 CALM      29.71F
ALBERT LEA     SUNNY     59  54  82 E9        29.69F
DODGE CENTER   SUNNY     57  50  77 SE5       29.72F
PRESTON        PTSUNNY   55  48  77 S3        29.74S
OWATONNA       SUNNY     61  50  67 E8        29.70F
FARIBAULT      SUNNY     59  52  77 SE7       29.71F
$$

...ELSEWHERE IN MINNESOTA...


CITY           SKY/WX    TMP DP  RH WIND       PRES   REMARKS
MINNEAPOLIS    MOSUNNY   62  50  64 SE12      29.70F
INTNL FALLS    CLOUDY    59  44  57 SE10G18   29.69F
DULUTH         CLOUDY    52  45  77 E12       29.73F
RED WING       SUNNY     61  48  63 SE5       29.71F
REDWOOD FALLS  SUNNY     63  49  60 S22       29.63F
MANKATO        MOSUNNY   60  51  72 S15       29.68F
WORTHINGTON    LGT RAIN  58  48  69 S18G25    29.64F
FAIRMONT       MOSUNNY   60  50  69 S17       29.68F
$$

...SOUTHWEST WISCONSIN...


CITY           SKY/WX    TMP DP  RH WIND       PRES   REMARKS
LA CROSSE      CLOUDY    58  52  80 NW6       29.71F
PRAIRIE DU CHI CLOUDY    56  48  74 CALM      29.71S
BOSCOBEL       CLOUDY    58  50  75 VRB5      29.71S
LONE ROCK      CLOUDY    56  50  80 NW3       29.70F
PLATTEVILLE    CLOUDY    55  54  95 N8        29.70S
FORT MC COY    PTSUNNY   56  51  83 CALM      29.72F
CAMP DOUGLAS   PTSUNNY   59  52  77 VRB3      29.70S
MAUSTON-NEW LI CLOUDY    58  53  81 W3        29.69F
VIROQUA        CLOUDY    54  50  89 MISG      29.71S
WIS DELLS      CLOUDY    56  50  79 NE6       29.69F
$$

...ELSEWHERE IN WISCONSIN...


CITY           SKY/WX    TMP DP  RH WIND       PRES   REMARKS
MILWAUKEE      PTSUNNY   62  53  72 N10       29.64S
MADISON        CLOUDY    55  51  86 N7        29.68R
GREEN BAY      SUNNY     59  53  80 NE15      29.69S
EAU CLAIRE     MOSUNNY   61  48  62 E9        29.71F
BLACK RVR FLS  FAIR      60  50  68 N3        29.71F
MEDFORD        PTSUNNY   59  51  74 N5        29.72S
WAUSAU         SUNNY     63  52  67 E8        29.69S
WIS RAPIDS     SUNNY     63  52  67 VRB3      29.71S
MARSHFIELD     MOSUNNY   62  51  67 VRB3      29.70S
RICE LAKE      MOSUNNY   61  46  59 SE3       29.74F
$$

...NORTHEAST IOWA...


CITY           SKY/WX    TMP DP  RH WIND       PRES   REMARKS
WATERLOO       SUNNY     59  50  72 CALM      29.72S
DUBUQUE        CLOUDY    54  51  90 N7        29.71R
DECORAH        CLOUDY    54  50  87 CALM      29.71S
MASON CITY     MOSUNNY   58  51  78 SE9       29.72F
CHARLES CITY   MOSUNNY   59  52  77 CALM      29.73S
OELWEIN        CLOUDY    54  52  94 N8        29.73F
$$

...ELSEWHERE IN IOWA...


CITY           SKY/WX    TMP DP  RH WIND       PRES   REMARKS
DES MOINES     MOSUNNY   61  51  70 SE6       29.72R
IOWA CITY      MOSUNNY   62  52  69 NE6       29.72S
FORT DODGE     MOSUNNY   61  50  67 S8        29.72S
MARSHALLTOWN   MOSUNNY   58  52  80 SE5       29.71S
CEDAR RAPIDS   MOSUNNY   57  52  83 VRB6      29.71S
$$

...NORTHERN ILLINOIS...


CITY           SKY/WX    TMP DP  RH WIND       PRES   REMARKS
CHICAGO-OHARE  CLOUDY    59  51  75 N12G21    29.62R
CHICAGO-MIDWAY CLOUDY    58  52  80 N14       29.61S
MOLINE         CLOUDY    59  51  75 VRB5      29.69S
ROCKFORD       CLOUDY    58  52  80 N12       29.67S
PEORIA         CLOUDY    57  52  83 NW9G16    29.69R
$$

NOTE: "FAIR" INDICATES FEW OR NO CLOUDS BELOW 12,000 FEET WITH NO
SIGNIFICANT WEATHER AND/OR OBSTRUCTIONS TO VISIBILITY. WIND
SPEEDS ARE IN MILES-PER-HOUR.




USA.gov is the U.S. government's official web portal to all federal, state and local government web resources and services.